Location: Moscow
(55.7500°N, 37.5830°E)
Time: 10:25:39
(UTC+03:00)

Vanguard 1 Rocket - Pass Details

Date: 04 December 2021
Orbit: 651 x 4224 km, 34.3° (Epoch: 23 January)

Event Time Altitude Azimuth Distance (km) Brightness Sun altitude
Exits shadow 06:50:42 - 254° (WSW) 5,598 10.9 -14.1°
Reaches altitude 10° 06:52:42 10° 249° (WSW) 5,327 10.8 -13.8°
Maximum altitude 07:07:03 33° 194° (SSW) 4,934 11.2 -11.9°
Drops below altitude 10° 07:27:16 10° 142° (SE) 7,419 13.2 -9.3°
Sets 07:34:08 0° 134° (SE) 8,426 14.0 -8.5°
